sat.trackr.live / text

‹ back to catalog

ONEWEB-0376

NORAD 49302 · 2021-090Z

PAYLOAD ACTIVE UNKNOWN

§ Identity

Operator
Country
UK
Launch date
2021-10-14
Launch site
VOSTO
Launch vehicle
Mass (kg)
RCS (m²)

Purposes: comms

External: N2YO · Heavens-Above · Gunter

§ Orbital elements

Epoch: 2026-05-24T23:43:11.508960Z

Period
109.11 min
Inclination
87.9161°
Eccentricity
0.0001657
Mean motion
13.19727532 rev/d
Perigee alt
1,184.5 km
Apogee alt
1,187.0 km
Semi-major
7,563.9 km
B*
-1.1773e-4
RAAN
309.5893°
Arg perigee
90.0492°
Mean anomaly
270.0830°
Rev number
22,339

§ Raw data

ONEWEB-03761 49302U 21090Z   26144.98832765 -.00000034  00000+0 -11773-3 0  99952 49302  87.9161 309.5893 0001657  90.0492 270.0830 13.19727532223391

JSON: /api/v1/satellites/49302 · /tle

For live sub-satellite position, see the globe view (requires WebGL).

§ Visibility from observer

Set your observer location to see the next 7 days of passes ≥ 10°. The values pass through the URL so the page stays shareable.

No JS? Fill the form by hand. The geolocation button needs JavaScript.